Location: Betpouey
(42.8833°N, 0.0333°E)
Time: 08:28:21
(UTC+00:00)

Meteor 1-5 Rocket - Pass Details

Date: 01 December 2020
Orbit: 788 x 916 km, 81.2° (Epoch: 17 January)

Event Time Altitude Azimuth Distance (km) Brightness Sun altitude
Rises 17:53:32 0° 354° (N) 3,545 7.3 -15.5°
Reaches altitude 10° 17:56:07 10° 359° (N) 2,588 6.6 -16.0°
Maximum altitude 18:01:53 52° 75° (ENE) 1,087 4.4 -17.0°
Drops below altitude 10° 18:07:26 10° 152° (SSE) 2,497 6.5 -18.0°
Sets 18:09:52 0° 157° (SSE) 3,409 7.3 -18.4°
